Location: Casalnuovo
(40.9167°N, 14.3333°E)
Time: 06:02:07
(UTC+00:00)

Daily predictions for brighter satellites

Satellite Brightness Start Highest point End
(mag) Time Altitude Azimuth Time Altitude Azimuth Time Altitude Azimuth
Cosmos 1726 2.1 19:05:43 10° N 19:09:20 66° E 19:12:58 10° SSE
Cosmos 1674 4.0 19:07:48 10° SE 19:10:42 22° E 19:13:37 10° NE
Cosmos 1400 Rocket 4.5 19:07:14 10° NNW 19:10:44 33° W 19:14:14 10° SSW
OBJECT-B 2.0 19:09:45 10° S 19:12:48 42° W 19:15:52 10° NNW
Cosmos 1842 4.5 19:09:11 10° SSW 19:12:59 47° W 19:16:48 10° N
Okean 2 3.5 19:08:57 10° S 19:13:01 80° W 19:17:07 10° N
FALCON 9 DEB 3.6 19:11:17 10° SSW 19:14:04 31° SE 19:16:54 10° ENE
ASTRO E2 4.3 19:12:16 10° SSW 19:14:58 18° S 19:17:40 10° SE
Cosmos 1975 Rocket 3.9 19:11:34 10° SSE 19:15:27 32° E 19:19:22 10° NNE
USA 186 3.9 19:14:04 10° SSW 19:16:29 24° W 19:19:03 10° NW
FALCON 9 DEB 3.2 19:13:45 10° SSW 19:16:42 42° SE 19:19:39 10° ENE
Cosmos 1953 3.8 19:13:44 10° NNE 19:16:59 22° ENE 19:20:11 10° SE
Cosmos 1741 Rocket 4.5 19:17:07 10° N 19:22:13 47° ENE 19:27:18 10° SE
Lacrosse 5 2.4 19:20:34 10° NW 19:25:30 54° SW 19:30:26 10° SSE
Resurs 01 Rocket 1.8 19:22:45 10° SSE 19:27:03 59° ENE 19:31:24 10° N
Ariane Rocket 3.1 19:22:52 10° S 19:27:58 80° WSW 19:33:06 10° NNW
COSMOS 2428 4.0 19:27:36 10° SE 19:31:38 20° E 19:35:41 10° NE
Landsat 7 4.0 19:28:42 10° SSE 19:33:21 58° ENE 19:38:02 10° N
SPOT 3 Rocket 3.7 19:28:49 10° SSE 19:33:52 61° ENE 19:39:00 10° N
Cosmos 1340 4.4 19:32:47 12° ESE 19:34:39 16° E 19:37:04 10° NE
Cosmos 2237 4.2 19:30:10 10° SSW 19:35:51 88° ESE 19:41:35 10° NNE
Cosmos 1844 Rocket 3.2 19:30:32 10° NNW 19:36:00 47° ENE 19:40:50 13° SE
Cosmos 1470 3.6 19:32:08 10° NNW 19:36:01 52° W 19:39:49 10° S
BREEZE-M DEB (TANK) 4.1 19:39:14 10° NW 19:42:47 26° NNE 19:44:44 10° E
Cosmos 2263 Rocket 4.0 19:45:41 10° NW 19:50:25 28° WSW 19:55:08 10° SSW
MetOp-B 4.2 19:45:57 12° SSE 19:50:54 71° ENE 19:56:15 10° N
Cosmos 1110 Rocket 3.9 19:46:16 10° SSW 19:51:26 77° ESE 19:56:39 10° NNE
In-Cosmos 22 4.3 19:49:08 10° SSW 19:54:23 72° W 19:59:42 10° N
Cosmos 1626 2.4 19:55:02 16° SSE 19:57:40 46° E 20:01:14 10° NNE
Cosmos 1908 3.3 19:54:21 10° N 19:58:11 59° E 20:00:43 20° SSE
Cosmos 1544 Rocket 4.1 19:55:16 10° N 19:59:32 43° ENE 20:02:14 20° SE
ARIANE 5 R/B 3.2 20:01:01 19° SE 20:03:49 43° ENE 20:08:04 10° N
Cosmos 1455 Rocket 3.0 19:59:29 10° N 20:03:59 83° E 20:07:25 17° S
Cosmos 2100 Rocket 4.0 19:59:08 10° N 20:05:31 77° E 20:10:49 15° SSE
ATLAS 3B R/B 2.5 19:59:23 10° SSW 20:05:50 69° ESE 20:12:30 10° NE
BREEZE-M DEB (TANK) 3.5 20:04:38 10° W 20:06:56 45° NNW 20:11:07 10° NE
IGS 5A 4.2 20:03:03 10° S 20:07:04 49° W 20:11:08 10° NNW
Cosmos 2333 4.2 20:03:09 10° SSW 20:08:52 74° ESE 20:14:35 10° NNE
Cosmos 1461 3.0 20:08:58 10° NW 20:13:07 66° WSW 20:15:24 24° SSE
ATLAS CENTAUR R/B 2.1 20:11:31 10° NNW 20:15:48 50° NE 20:18:22 23° ESE
Cosmos 2173 Rocket 4.0 20:12:05 10° N 20:18:30 90° E 20:23:38 17° S
Cosmos 405 3.7 20:15:38 10° N 20:18:51 36° ENE 20:19:49 29° ESE
SL-8 R/B 3.6 20:14:41 10° WNW 20:19:30 90° W 20:22:21 24° ESE
SL-4 R/B 2.4 20:16:19 10° SSW 20:20:19 38° SE 20:24:03 10° ENE
Cosmos 2219 Rocket 2.2 20:16:03 10° S 20:21:39 66° ESE 20:27:17 10° NNE
Meteor 2-5 Rocket 4.0 20:18:44 22° SSE 20:22:02 46° E 20:27:22 10° NNE
Cosmos 2016 Rocket 4.0 20:16:21 10° N 20:22:26 64° E 20:26:22 23° SSE
Cosmos 2333 Rocket 2.2 20:17:14 10° SSW 20:22:58 79° ESE 20:28:44 10° NNE
FALCON 9 DEB 4.1 20:23:03 10° WSW 20:26:03 44° NW 20:29:05 10° NE
ERS-1 Rocket 3.1 20:24:07 25° SE 20:26:55 59° ENE 20:31:53 10° N
Geosat 4.4 20:24:37 24° SE 20:27:27 52° ENE 20:32:20 10° NNW
Cosmos 1025 Rocket 3.2 20:23:44 13° SSW 20:27:35 73° W 20:31:58 10° N
Lacrosse 5 rocket 3.4 20:26:32 10° W 20:29:42 26° NW 20:32:47 10° NNE
Cosmos 1536 Rocket 3.6 20:28:12 27° SSE 20:30:32 62° E 20:34:56 10° NNE
Spot 2 Rocket 3.5 20:28:31 23° S 20:31:42 84° WSW 20:36:48 10° NNW
Cosmos 1844 3.7 20:27:08 10° NNW 20:32:42 75° WSW 20:36:02 25° SSE
Cosmos 2228 4.4 20:32:31 10° NNE 20:36:09 24° ENE 20:37:17 22° E
USA 215 4.0 20:31:04 10° ENE 20:36:35 29° SE 20:38:12 26° SSE
Cosmos 1725 Rocket 4.0 20:30:41 10° N 20:36:51 71° E 20:40:27 26° SSE
Cosmos 1900 4.4 20:36:47 10° NW 20:41:39 69° WSW 20:43:50 32° SSE
DNEPR-1 R/B 3.5 20:37:38 10° NNW 20:41:52 73° ENE 20:43:36 36° SE
CARTOSAT-1 3.8 20:40:17 28° S 20:42:29 66° W 20:46:47 10° NNW
Cosmos 2237 Rocket 3.1 20:41:59 26° ESE 20:42:54 28° ESE 20:47:35 10° NE
Terra 2.0 20:41:19 33° SE 20:43:17 58° ENE 20:47:58 10° N
SL-14 R/B 3.5 20:41:31 24° SSW 20:43:51 71° W 20:47:52 10° N
SPOT 1/Viking Rocket 4.4 20:40:40 16° SSW 20:44:27 44° W 20:49:21 10° NNW
Cosmos 2360 Rocket 4.0 20:41:16 10° WSW 20:46:16 32° WNW 20:51:19 10° N
SPOT 5 2.9 20:48:15 31° S 20:50:46 83° WSW 20:55:42 10° NNW
Cosmos 1953 4.2 20:49:55 10° NNW 20:53:17 25° W 20:56:03 13° SW
Meteor 1-24 Rocket 3.5 20:51:24 31° S 20:54:01 72° E 20:59:30 10° NNE
Cosmos 1455 4.2 20:52:26 10° NNE 20:54:55 16° ENE 20:55:06 16° ENE
Cosmos 1302 Rocket 4.4 20:51:28 10° SSW 20:56:40 62° WNW 21:01:52 10° NNE
Cosmos 1802 Rocket 4.5 20:51:25 10° NNW 20:57:34 57° W 21:01:56 20° SSW
H-2A R/B 3.3 20:54:53 10° NNE 20:58:58 68° ESE 20:59:53 50° SSE
Resurs 01 Rocket 4.2 21:02:08 10° WSW 21:03:55 12° W 21:05:43 10° WNW
Cosmos 1300 2.9 21:01:44 10° NNW 21:05:30 64° W 21:06:19 48° SSW
Cosmos 1340 4.4 21:07:27 15° SW 21:09:57 29° WNW 21:13:17 10° NNW
COSMOS 2428 3.3 21:09:46 10° SW 21:15:24 58° WNW 21:21:05 10° NNE
Cosmos 2278 Rocket 2.6 21:13:24 10° NNW 21:18:58 54° ENE 21:20:55 37° ESE
Cosmos 1844 Rocket 4.3 21:15:04 10° NW 21:19:33 24° WSW 21:22:31 16° SW
GENESIS II 4.1 21:20:01 57° SW 21:20:45 81° WNW 21:24:40 10° NNE
NOSS 0 Rocket 3.8 21:17:59 29° SSW 21:21:20 80° ESE 21:27:34 10° NNE
Cosmos 389 Rocket 2.6 21:21:11 10° N 21:24:17 67° NNE 21:24:17 67° NNE
Cosmos 1726 Rocket 3.8 21:22:04 10° N 21:26:27 53° E 21:26:53 51° ESE
Cosmos 2058 Rocket 4.1 21:22:49 10° NNE 21:26:49 32° ENE 21:27:08 32° E
Cosmos 1867 3.5 21:21:52 10° NNW 21:27:23 88° ENE 21:28:54 50° SE
ATLAS 2A CENTAUR R/B 4.3 21:23:20 10° SW 21:27:25 16° SSW 21:27:25 16° SSW
Cosmos 968 Rocket 3.7 21:27:10 10° NNW 21:32:12 59° WSW 21:33:29 45° SSW
Cosmos 1486 Rocket 4.0 21:32:32 10° NNW 21:37:44 72° WSW 21:38:52 53° S
SJ 16-02 3.8 21:37:18 10° NNE 21:39:05 12° ENE 21:40:30 11° ENE
Cosmos 1992 Rocket 4.4 21:37:59 29° SW 21:40:32 60° WNW 21:45:43 10° NNE
Meteor 2-10 Rocket 3.6 21:36:29 10° NNW 21:41:28 63° W 21:42:36 49° SSW
Spot 4 4.3 21:41:10 42° E 21:41:54 46° ENE 21:46:28 10° N
Cosmos 1606 Rocket 3.5 21:37:37 10° N 21:42:06 78° W 21:42:32 69° SSW
Cosmos 2233 Rocket 4.4 21:37:04 10° NNW 21:43:01 54° W 21:45:35 33° SSW
Cosmos 1892 Rocket 3.4 21:43:59 77° SSE 21:44:14 82° E 21:48:42 10° N
Cosmos 1943 Rocket 4.2 21:40:32 10° N 21:44:17 18° NE 21:47:24 12° E
MINOTAUR IV R/B 4.5 21:44:11 72° SE 21:44:19 72° ESE 21:48:53 10° NNE
Cosmos 1346 Rocket 3.9 21:47:04 34° WSW 21:47:53 38° WNW 21:51:41 10° N
Cosmos 1891 Rocket 4.5 21:45:12 10° N 21:51:24 73° E 21:53:08 49° SSE
Cosmos 1980 3.8 21:51:14 35° SW 21:53:40 71° WNW 21:59:22 10° NNE
Cosmos 1441 Rocket 3.9 21:54:42 45° NE 21:54:42 45° NE 21:57:40 10° NNE
Cosmos 1354 Rocket 4.0 21:48:43 10° NNW 21:54:05 78° ENE 21:55:00 61° SE
ATLAS CENTAUR R/B 3.5 21:51:16 10° WNW 21:54:23 19° WSW 21:54:30 19° WSW
Cosmos 1513 Rocket 4.4 21:48:44 10° N 21:54:50 74° E 21:56:24 51° SSE
BREEZE-M DEB (TANK) 3.4 21:45:04 10° WSW 21:56:36 75° NNW 21:59:58 10° NE
ALOS 2 3.5 21:57:54 35° ENE 21:58:08 36° ENE 22:02:09 10° N
NOSS 3-1 (C) 3.9 21:59:23 36° E 21:59:23 36° E 22:04:09 10° NE
SL-4 R/B 3.3 21:56:03 10° W 21:59:55 38° NNW 22:03:31 10° NE
Centaur D AC-28 4.3 21:59:58 31° SSW 22:03:48 42° SSE 22:56:27 10° E
Centaur D AC-28 4.3 21:59:57 31° SSW 22:03:48 42° SSE 22:56:27 10° E
Cosmos 1072 Rocket 4.4 21:59:06 10° N 22:05:31 89° E 22:07:11 53° S
Cosmos 1703 3.6 22:08:43 63° NNE 22:08:43 63° NNE 22:12:06 10° N
Cosmos 1607 3.9 22:05:02 10° NW 22:11:27 82° WSW 22:12:53 56° SSE
Cosmos 1626 Rocket 4.0 22:12:19 51° ENE 22:12:19 51° ENE 22:16:15 10° NNE
Cosmos 2346 Rocket 4.4 22:16:24 55° SSW 22:17:53 86° W 22:24:06 10° N
USA 215 3.3 22:13:24 10° NE 22:19:57 78° NW 22:25:28 15° WSW
Cosmos 1602 Rocket 4.3 22:20:35 44° ENE 22:20:35 44° ENE 22:24:25 10° NNE
Terra 4.0 22:20:12 13° WSW 22:21:24 14° W 22:23:58 10° WNW
Meteor 2-1 Rocket 4.1 22:15:53 10° NNW 22:21:25 79° W 22:22:14 64° SSW
COBE Rocket 3.8 22:22:10 77° SSE 22:22:33 88° ENE 22:27:31 10° N
SL-16 R/B 2.1 22:23:55 64° SE 22:24:25 68° ESE 22:30:03 10° NNE
Cosmos 2237 Rocket 3.2 22:23:45 23° WSW 22:26:44 41° WNW 22:32:03 10° N
Cosmos 1328 4.3 22:31:00 55° N 22:31:00 55° N 22:34:07 10° N
Cosmos 1455 3.7 22:27:12 10° NNW 22:29:59 29° WNW 22:29:59 29° WNW
Cosmos 1464 Rocket 4.2 22:26:38 10° NNW 22:32:54 62° W 22:34:26 48° SW
Cosmos 2369 Rocket 3.9 22:33:51 10° N 22:38:35 26° NE 22:41:39 17° E
GEOS 3 Rocket 3.5 22:38:08 70° SSE 22:38:47 85° SW 22:44:10 10° NW
Cosmos 1634 Rocket 4.5 22:35:51 10° N 22:42:00 51° ENE 22:43:33 42° ESE
ATLAS CENTAUR R/B 3.6 22:40:44 28° WSW 22:43:35 65° NW 22:55:47 10° NE
NOSS 2-3 (D) 4.0 22:51:07 52° ENE 22:51:07 52° ENE 22:54:43 10° NE
USA 267 3.7 22:46:54 18° ESE 22:51:52 58° NE 22:58:16 10° NW
USA 32 3.8 22:47:46 10° N 22:53:03 87° E 22:53:23 79° SSE
Aureole 3 4.0 22:49:25 10° N 22:53:19 57° ENE 22:53:19 57° ENE
Cosmos 1763 Rocket 4.3 22:55:46 36° E 22:55:46 36° E 23:00:08 10° NE
Cosmos 1812 Rocket 3.7 22:55:27 10° N 22:59:21 71° NNW 22:59:21 71° NNW
Cosmos 2278 Rocket 3.8 22:58:28 10° NW 23:02:35 21° W 23:02:45 21° WSW
Cosmos 2297 3.5 22:59:55 10° NNW 23:05:35 86° WSW 23:06:11 73° S
NOSS 2-3 (C) 3.7 23:07:21 68° NNW 23:07:21 68° NNW 23:11:38 10° NNE
Thor Agena Rocket 3.4 23:04:09 10° NNE 23:09:24 90° WNW 23:09:46 78° SSW
Resurs 1-4 Rocket 4.2 23:14:35 10° ENE 23:17:16 14° E 23:18:23 13° ESE
SJ 16-02 1.7 23:13:48 10° NNW 23:17:27 56° NW 23:17:27 56° NW
Exosat Rocket 4.1 23:20:17 54° SSE 23:21:22 62° ESE 23:26:45 10° NNE
In-Cosmos 22 Rocket 4.0 23:23:39 69° SSE 23:24:15 77° E 23:29:45 10° NNE
Cosmos 1825 Rocket 3.6 23:25:14 76° NNW 23:25:14 76° NNW 23:29:22 10° N
GP-B 3.6 23:21:58 10° N 23:26:01 51° WNW 23:26:01 51° WNW
Meteor 1-27 4.0 23:21:01 10° N 23:26:36 85° W 23:27:14 71° S
Cosmos 1943 Rocket 2.0 23:23:05 10° NNW 23:28:35 71° WSW 23:28:53 69° SW
Cosmos 1892 3.4 23:30:16 53° N 23:30:16 53° N 23:33:20 10° N
X-37B 3.5 23:33:13 13° ENE 23:33:13 13° ENE 23:33:37 10° ENE
Cosmos 540 Rocket 4.0 23:32:30 43° ESE 23:32:37 43° ESE 23:37:26 10° NNE
USA 305 4.4 23:35:05 27° E 23:35:05 27° E 23:37:23 10° ENE
ALOS 2 4.5 23:35:17 19° W 23:35:17 19° W 23:37:49 10° NW
Cosmos 2142 Rocket 4.4 23:30:27 10° N 23:36:37 87° W 23:37:52 60° S
Cosmos 1943 3.2 23:36:45 60° SE 23:37:18 64° ESE 23:42:53 10° NNE
Cosmos 1437 Rocket 4.1 23:33:54 10° N 23:37:14 32° ENE 23:37:14 32° ENE
Cosmos 1869 3.7 23:34:41 10° N 23:38:08 61° NNW 23:38:08 61° NNW
CZ-2D R/B 3.7 23:35:23 10° NE 23:39:18 21° E 23:40:22 20° ESE
USA 229 DEB 3.8 23:38:45 41° WSW 23:41:02 66° NW 23:47:47 10° NNE
USA 229 3.7 23:38:53 42° WSW 23:41:07 67° NW 23:47:54 10° NNE
Cosmos 990 Rocket 3.8 23:37:04 10° NNW 23:42:17 82° ENE 23:42:50 71° SE
Lacrosse 4 Rocket 4.2 23:40:27 10° NNE 23:42:37 14° NE 23:44:45 10° E
EO 1 Del DPAF 3.9 23:39:43 10° N 23:42:38 53° N 23:42:38 53° N
Cosmos 841 Rocket 3.9 23:44:06 47° ESE 23:44:25 47° ESE 23:49:21 10° NNE
DELTA 2 R/B (1) 3.5 23:47:08 62° SE 23:47:08 62° SE 23:52:10 10° E
Cosmos 1603 3.6 23:46:12 66° S 23:46:59 80° ESE 23:52:40 10° NNE
Cosmos 1953 Rocket 3.7 23:50:41 67° WNW 23:50:41 67° WNW 23:54:51 10° N
SL-16 R/B 4.0 23:46:03 13° ESE 23:50:42 31° ENE 23:56:00 10° N
Cosmos 1408 3.7 23:53:09 39° NW 23:53:09 39° NW 23:55:53 10° N
Cosmos 1825 2.7 23:54:28 56° N 23:54:28 56° N 23:57:30 10° N
Cosmos 1242 Rocket 4.2 23:52:02 10° NNE 23:55:10 27° ENE 23:55:13 27° ENE
